User: anonymous   Login
Location: Arborea
(39.7744°N, 8.5819°E)
Time: 16:40:31
(UTC+00:00)
Language:

CZ-2C R/B - Orbit

View from above orbital plane
View from above orbital plane
View from above satellite
View from above satellite

Ground track
Ground track

The orbit data is extracted from the following two-line orbital elements,

1 43173U 18011E   22024.26723507  .00007844  00000-0  20555-3 0  9994
2 43173  34.9943 329.9259 0134793 294.3209  64.3484 15.29079431223004
Epoch (UTC): 24 January 2022 06:24:49
Eccentricity: 0.0134793
inclination: 34.9943°
perigee height: 386 km
apogee height: 571 km
right ascension of ascending node: 329.9259°
argument of perigee: 294.3209°
revolutions per day: 15.29079431
mean anomaly at epoch: 64.3484°
orbit number at epoch: 22300

The dashed part of the orbit path shows where the satellite is in the earth's shadow,  

DLR